[[{"header":{"parameterUnit":"m.s-1","parameterCategory":2,"la1":30.2991,"la2":30.254,"lo1":-89.0895,"lo2":-89.0444,"dy":0.0017,"dx":0.0017,"nx":28,"ny":28,"refTime":"2023-09-09T03:00:00:Z","depth":"0","parameterNumber":2,"parameterNumberName":"U-component_of_CURRENTS"},"data":[0,0,0,0,0,0,0,0,0,0,0,0,0,0,0,0,0,0,0,0,0,0,0,0,0,0,0,0,0,0,0,0,0,0,0,0,0,0,0,0,0,0,0,0,0,0,0,0,0,0,0,0,0,0,0,0,0,0,0.3575,0.3575,0,0.3585,0.3584,0.3584,0.3582,0.3582,0.3582,0.3582,0.3586,0.3586,0.3586,0,0,0,0,0,0,0,0,0,0,0,0,0,0.3561,0.3561,0.3575,0.3575,0.3576,0.3585,0.3584,0.3584,0.3582,0.3582,0.3582,0.3582,0.3586,0.3586,0.3586,0,0,0,0,0,0,0,0,0,0,0,0,0,0.3566,0.3561,0.3575,0.3577,0.3577,0.3585,0.3584,0.3584,0.3582,0.3582,0.3582,0.3582,0.3586,0.3586,0.3586,0.3587,0,0,0.3587,0.3587,0,0,0,0,0,0,0,0,0.3566,0.3567,0.3576,0.3577,0.3577,0.3584,0.3581,0.3586,0.3582,0.3578,0.3582,0.3582,0.3586,0.3586,0.3585,0.3587,0.3588,0.3587,0.3587,0.3587,0.3587,0,0,0,0,0,0,0,0.3566,0.3566,0.3577,0.3577,0.3577,0.358,0.358,0.3582,0.358,0.3578,0.3579,0.3583,0.3586,0.3585,0.3585,0.3588,0.3587,0.3587,0.3587,0.3587,0.3685,0.3687,0,0,0,0,0,0,0.3569,0.3566,0.3576,0.3577,0.3574,0.358,0.3581,0.358,0.358,0.3581,0.3583,0.3583,0.3585,0.3585,0.3585,0.3671,0.3587,0.3587,0.3587,0.3682,0.3685,0.3688,0,0,0,0,0,0,0.3568,0.3569,0.3576,0.3574,0.3575,0.3581,0.358,0.358,0.3582,0.3584,0.3585,0.3585,0.3585,0.3585,0.361,0.3668,0.3587,0.3587,0.3679,0.3683,0.3686,0.3788,0,0,0,0,0,0,0.3567,0.3569,0.3568,0.3574,0.3575,0.3593,0.358,0.3581,0.3586,0.3586,0.3586,0.3587,0.3585,0.361,0.361,0.3667,0.3588,0.3676,0.3681,0.3685,0.3782,0.3795,0.3806,0,0,0,0,0,0.3567,0.3563,0.3568,0.357,0.3575,0.3594,0.3596,0.3598,0.3586,0.3597,0.3604,0.3587,0.364,0.3611,0.3611,0.3669,0.3674,0.368,0.3685,0.3776,0.3792,0.3806,0,0,0,0,0,0,0.3546,0.3563,0.3568,0.3567,0.3588,0.3595,0.3599,0.3599,0.3611,0.361,0.3604,0.3606,0.3659,0.3643,0.3611,0.3713,0.366,0.3666,0.3729,0.3744,0.3756,0.3763,0.3588,0,0,0,0,0,0.3545,0.3552,0.3572,0.3573,0.3583,0.3592,0.3597,0.3605,0.3616,0.3619,0.3624,0.364,0.3682,0.3693,0.3716,0.3753,0.3761,0.3795,0.3808,0.3818,0.3825,0.3891,0.391,0.3706,0.3706,0.3706,0,0,0.3537,0.3547,0.355,0.3571,0.3581,0.3617,0.3594,0.3611,0.3652,0.3619,0.3664,0.3679,0.3702,0.3764,0.3786,0.3756,0.3884,0.3825,0.3834,0.3835,0.3899,0.3919,0.3936,0.371,0.3709,0.3709,0,0,0.3532,0.3535,0.3548,0.3577,0.3606,0.3625,0.3633,0.3653,0.3674,0.3717,0.3726,0.3772,0.3801,0.3848,0.3873,0.396,0.395,0.397,0.4034,0.4099,0.4116,0.4131,0.4181,0.42,0.3973,0.3973,0.3973,0,0.3527,0.3545,0.3555,0.3588,0.362,0.3634,0.3674,0.3705,0.3735,0.3767,0.3745,0.3841,0.3852,0.3959,0.3998,0.3991,0.4015,0.3975,0.4115,0.413,0.4144,0.4191,0.421,0.3979,0.3978,0.3978,0.3977,0,0.3543,0.357,0.3581,0.3639,0.3674,0.3707,0.3763,0.3804,0.3826,0.3859,0.3949,0.3973,0.4028,0.4056,0.4053,0.4172,0.4154,0.4126,0.4076,0.4171,0.4214,0.4233,0.3987,0.3985,0.3983,0.3982,0,0,0.3514,0.3582,0.3591,0.3627,0.3707,0.3734,0.3826,0.3909,0.3963,0.4012,0.4087,0.4176,0.4175,0.4204,0.4217,0.4275,0.4397,0.4244,0.4244,0.429,0.4539,0.4469,0.4481,0.4394,0.4397,0.44,0.4535,0,0.3533,0.3595,0.3634,0.3712,0.3754,0.3821,0.3898,0.3979,0.4041,0.4115,0.4181,0.4247,0.4239,0.4263,0.4332,0.4376,0.4448,0.4363,0.4442,0.4445,0.4368,0.4501,0.4243,0.4337,0.4553,0.4556,0.4558,0,0.3547,0.3589,0.3662,0.3752,0.3776,0.3832,0.3958,0.4028,0.4154,0.4188,0.4281,0.4324,0.444,0.4395,0.455,0.4495,0.4533,0.4561,0.4566,0.4474,0.4408,0.4275,0.4361,0.4265,0.4586,0.4583,0.4581,0,0.3524,0.3611,0.3667,0.3703,0.3811,0.3864,0.3926,0.4052,0.4121,0.4238,0.4298,0.4418,0.4482,0.4565,0.4647,0.4604,0.4798,0.4738,0.4721,0.4715,0.4497,0.4466,0.4491,0.4856,0.4856,0.4856,0.4855,0,0.3537,0.3582,0.3656,0.3693,0.3755,0.3842,0.3926,0.4001,0.4128,0.4215,0.4326,0.4419,0.4529,0.4657,0.47,0.4784,0.4851,0.4766,0.4761,0.4526,0.4498,0.4401,0.436,0.4861,0.486,0.4859,0.4858,0,0.3509,0.3566,0.3621,0.3718,0.3745,0.3788,0.3905,0.3971,0.4094,0.4218,0.4264,0.4451,0.4605,0.473,0.4866,0.4848,0.4784,0.4936,0.4651,0.461,0.4447,0.4421,0.4288,0.4172,0.492,0.492,0.4919,0,0.3497,0.3525,0.3605,0.3632,0.3675,0.3745,0.3796,0.3921,0.3994,0.4236,0.4292,0.4509,0.4629,0.4822,0.4808,0.4884,0.4785,0.4695,0.4561,0.4439,0.4408,0.4242,0.4142,0.432,0.4314,0.431,0.4306,0,0.3464,0.3491,0.3536,0.3578,0.3626,0.3678,0.3764,0.3818,0.3983,0.4089,0.4245,0.4378,0.4568,0.4526,0.4646,0.4651,0.4434,0.4605,0.4548,0.4013,0.3762,0.3645,0.4238,0.4267,0.4271,0.4273,0.4276,0.4277,0.3418,0.3424,0.347,0.3499,0.3551,0.3593,0.3582,0.3687,0.3767,0.3871,0.4074,0.4144,0.4232,0.4339,0.4335,0.4154,0.4186,0.4012,0.4018,0.3883,0.3675,0.4191,0.4169,0.4172,0.4175,0.4178,0.418,0,0.3317,0.3343,0.3383,0.3397,0.3393,0.3466,0.3529,0.3488,0.3491,0.3638,0.3702,0.3739,0.3728,0.38,0.3711,0.358,0.3387,0.3509,0.3204,0.316,0.3676,0.3554,0.331,0.331,0.331,0.331,0.3311,0.3311,0.3273,0.3253,0.3266,0.3214,0.3226,0.3161,0.3157,0.3129,0.3175,0.3142,0.3129,0.321,0.3397,0.3386,0.3252,0.3173,0.297,0.279,0.289,0.3248,0.3294,0.3337,0.3214,0.2903,0.2902,0.2161,0.2156,0.2152]},{"header":{"parameterUnit":"m.s-1","parameterCategory":2,"la1":30.2991,"la2":30.254,"lo1":-89.0895,"lo2":-89.0444,"dy":0.0017,"dx":0.0017,"nx":28,"ny":28,"refTime":"2023-09-09T03:00:00:Z","depth":"0","parameterNumber":3,"parameterNumberName":"V-component_of_CURRENTS"},"data":[0,0,0,0,0,0,0,0,0,0,0,0,0,0,0,0,0,0,0,0,0,0,0,0,0,0,0,0,0,0,0,0,0,0,0,0,0,0,0,0,0,0,0,0,0,0,0,0,0,0,0,0,0,0,0,0,0,0,0.0026,0.0026,0,-0.0024,-0.0024,-0.0025,-0.0069,-0.0069,-0.007,-0.007,-0.0172,-0.0174,-0.0176,0,0,0,0,0,0,0,0,0,0,0,0,0,0.0046,0.0046,0.0026,0.0026,0.0025,-0.0024,-0.0024,-0.0025,-0.0069,-0.007,-0.007,-0.007,-0.0171,-0.0174,-0.0177,0,0,0,0,0,0,0,0,0,0,0,0,0,0.002,0.0046,0.0026,-0.0001,-0.0004,-0.0023,-0.0024,-0.0025,-0.0069,-0.007,-0.007,-0.0071,-0.017,-0.0173,-0.0177,-0.0188,0,0,-0.0188,-0.0189,0,0,0,0,0,0,0,0,0.0021,0.0019,0.0003,0.0001,-0.0003,-0.0039,-0.0054,-0.0082,-0.0069,-0.0046,-0.007,-0.0071,-0.0131,-0.0137,-0.0147,-0.0193,-0.0197,-0.0188,-0.019,-0.0192,-0.0193,0,0,0,0,0,0,0,0.0023,0.002,0.0005,0.0003,-0.0001,-0.0024,-0.0028,-0.006,-0.0087,-0.0048,-0.0051,-0.0054,-0.0133,-0.0144,-0.015,-0.0199,-0.0188,-0.0191,-0.0193,-0.0195,-0.0308,-0.0309,0,0,0,0,0,0,0.0035,0.0023,0.0006,0.0003,0.001,-0.0023,-0.0028,-0.0028,-0.0086,-0.0094,-0.0053,-0.0056,-0.0137,-0.0146,-0.0154,-0.019,-0.0192,-0.0195,-0.0197,-0.0307,-0.0308,-0.0309,0,0,0,0,0,0,0.0036,0.0035,0.0008,0.0013,0.0008,-0.0023,-0.0023,-0.0029,-0.0038,-0.0089,-0.0099,-0.0056,-0.0138,-0.0149,-0.0185,-0.0194,-0.0197,-0.02,-0.0306,-0.0307,-0.0309,-0.0251,0,0,0,0,0,0,0.0037,0.0035,0.004,0.0014,0.0008,0.0002,-0.0022,-0.003,-0.0038,-0.0042,-0.0094,-0.0104,-0.0139,-0.018,-0.0189,-0.0199,-0.0203,-0.0305,-0.0307,-0.0308,-0.0251,-0.025,-0.0248,0,0,0,0,0,0.0038,0.0051,0.0041,0.0039,0.0016,0.0003,-0.0002,-0.0027,-0.0038,-0.0038,-0.0079,-0.0102,-0.0198,-0.0183,-0.0193,-0.0205,-0.0304,-0.0306,-0.0308,-0.0252,-0.025,-0.0248,0,0,0,0,0,0,0.0065,0.0047,0.0035,0.0043,0.0026,-0.0004,-0.0003,-0.002,-0.0051,-0.0055,-0.0105,-0.0118,-0.0157,-0.0189,-0.0172,-0.0246,-0.0258,-0.0262,-0.0212,-0.0211,-0.0209,-0.0166,-0.0206,0,0,0,0,0,0.0074,0.0078,0.0055,0.0061,0.0056,0.0027,0.002,0.0003,-0.0026,-0.004,-0.0078,-0.0127,-0.0174,-0.0196,-0.024,-0.027,-0.0276,-0.029,-0.0288,-0.0286,-0.0261,-0.0289,-0.0287,-0.0315,-0.0315,-0.0315,0,0,0.0087,0.0079,0.008,0.0067,0.0052,0.0048,0.0021,0.0016,0.0008,-0.0046,-0.007,-0.0119,-0.0181,-0.0221,-0.0242,-0.0248,-0.0281,-0.0289,-0.0287,-0.0261,-0.0291,-0.0288,-0.0285,-0.0317,-0.0317,-0.0316,0,0,0.0116,0.0107,0.0119,0.0107,0.0091,0.0071,0.0073,0.0043,0.0027,-0.0001,-0.005,-0.0095,-0.0161,-0.0206,-0.0238,-0.0253,-0.0272,-0.028,-0.0235,-0.0263,-0.026,-0.0258,-0.0248,-0.0245,-0.0279,-0.0279,-0.0279,0,0.0131,0.0141,0.012,0.0125,0.0123,0.0085,0.0094,0.007,0.0031,0.0027,-0.0002,-0.0093,-0.0152,-0.0195,-0.021,-0.0247,-0.0251,-0.0233,-0.0257,-0.0255,-0.0253,-0.0245,-0.0242,-0.0277,-0.0277,-0.0277,-0.0278,0,0.0164,0.017,0.0177,0.0169,0.0163,0.0165,0.0133,0.0126,0.0098,0.0072,0.0032,-0.0046,-0.0093,-0.0137,-0.018,-0.0205,-0.0206,-0.0249,-0.0251,-0.0246,-0.0239,-0.0237,-0.0273,-0.0274,-0.0275,-0.0275,0,0,0.0202,0.02,0.0204,0.0216,0.0188,0.0195,0.0184,0.0173,0.0187,0.0124,0.013,0.0026,-0.0003,-0.0042,-0.0109,-0.0144,-0.0148,-0.0184,-0.0186,-0.0152,-0.0176,-0.0142,-0.0137,-0.0193,-0.0193,-0.0193,-0.017,0,0.0233,0.0263,0.0247,0.0275,0.0288,0.026,0.0266,0.0252,0.0222,0.0215,0.0134,0.0103,0.0027,0.0006,-0.0041,-0.0121,-0.0142,-0.0147,-0.0204,-0.0205,-0.0158,-0.0134,-0.0107,-0.0082,-0.0168,-0.0168,-0.0168,0,0.0272,0.0288,0.0323,0.035,0.0356,0.0365,0.0387,0.0386,0.0358,0.0334,0.0289,0.023,0.0169,0.0096,-0.0001,0.0002,-0.007,-0.0134,-0.0136,-0.0117,-0.0167,-0.0107,-0.0076,-0.0214,-0.0165,-0.0165,-0.0166,0,0.0326,0.0346,0.0384,0.0387,0.0403,0.0427,0.0436,0.0429,0.0453,0.0411,0.0428,0.0335,0.0309,0.0199,0.0079,0.0037,-0.0012,-0.0094,-0.0123,-0.012,-0.0112,-0.0109,-0.02,-0.0149,-0.0149,-0.015,-0.015,0,0.0371,0.0402,0.0418,0.0441,0.0509,0.0494,0.056,0.0554,0.056,0.0621,0.0502,0.0532,0.0333,0.028,0.0141,0.0049,0.0042,-0.0085,-0.011,-0.0091,-0.0087,-0.022,-0.0326,-0.0149,-0.0149,-0.0149,-0.0149,0,0.0424,0.0429,0.0483,0.0517,0.0538,0.059,0.0651,0.0699,0.0692,0.0766,0.0764,0.0689,0.0633,0.0467,0.0303,0.0158,-0.0032,0.0004,0.0065,0.0047,-0.0133,-0.0237,-0.0327,-0.0392,-0.0033,-0.0032,-0.0031,0,0.0454,0.0487,0.0551,0.0602,0.0621,0.069,0.0751,0.0761,0.0823,0.0888,0.0943,0.0905,0.0929,0.0714,0.045,0.0251,0.006,0.0101,0.0007,-0.0108,-0.0244,-0.0314,-0.037,0.0042,0.0043,0.0044,0.0045,0,0.0521,0.0544,0.0594,0.0693,0.0765,0.0851,0.0938,0.1012,0.1065,0.1156,0.1276,0.1304,0.1114,0.0921,0.0616,0.0437,0.0004,0.0119,-0.0034,-0.0203,-0.0253,-0.0338,0.0012,0.0055,0.0054,0.0054,0.0053,0.0053,0.0584,0.0632,0.0706,0.0802,0.0891,0.1016,0.111,0.123,0.1385,0.1557,0.1559,0.1661,0.1319,0.0919,0.0648,0.0154,0.011,-0.0028,-0.0143,-0.02,-0.0273,0.0131,0.0161,0.016,0.016,0.016,0.016,0,0.0666,0.0719,0.0811,0.0935,0.1047,0.1073,0.1244,0.1363,0.1588,0.1767,0.1911,0.185,0.1433,0.0956,0.029,-0.0058,-0.0213,-0.0263,-0.0388,-0.0434,-0.0095,-0.0102,-0.0087,-0.0087,-0.0086,-0.0086,-0.0086,-0.0086,0.0716,0.0815,0.0853,0.1051,0.114,0.1302,0.1409,0.1609,0.1777,0.2035,0.2141,0.219,0.1848,0.0641,-0.0177,-0.0384,-0.0631,-0.0664,-0.0803,-0.0612,-0.06,-0.0589,-0.0619,-0.0713,-0.0714,-0.1083,-0.1087,-0.109]}],[{"header":{"parameterUnit":"m.s-1","parameterCategory":2,"la1":30.2991,"la2":30.254,"lo1":-89.0895,"lo2":-89.0444,"dy":0.0017,"dx":0.0017,"nx":28,"ny":28,"refTime":"2023-09-09T03:00:00:Z","depth":"2","parameterNumber":2,"parameterNumberName":"U-component_of_CURRENTS"},"data":[0,0,0,0,0,0,0,0,0,0,0,0,0,0,0,0,0,0,0,0,0,0,0,0,0,0,0,0,0,0,0,0,0,0,0,0,0,0,0,0,0,0,0,0,0,0,0,0,0,0,0,0,0,0,0,0,0,0,0.2615,0.2615,0,0.2625,0.2625,0.2625,0.2615,0.2616,0.2616,0.2616,0.2635,0.2635,0.2636,0,0,0,0,0,0,0,0,0,0,0,0,0,0.2563,0.2564,0.2614,0.2615,0.2616,0.2625,0.2625,0.2625,0.2615,0.2616,0.2616,0.2616,0.2635,0.2635,0.2636,0,0,0,0,0,0,0,0,0,0,0,0,0,0.2575,0.2564,0.2614,0.2617,0.2617,0.2626,0.2625,0.2625,0.2615,0.2616,0.2616,0.2616,0.2635,0.2635,0.2636,0.2635,0,0,0.2638,0.2638,0,0,0,0,0,0,0,0,0.2575,0.2576,0.2616,0.2616,0.2617,0.2624,0.2614,0.2631,0.2615,0.261,0.2616,0.2616,0.2636,0.2636,0.263,0.2636,0.2637,0.2638,0.2638,0.2638,0.2638,0,0,0,0,0,0,0,0.2574,0.2576,0.2613,0.2616,0.2618,0.261,0.2611,0.2617,0.2617,0.261,0.2611,0.2622,0.2636,0.2629,0.263,0.2637,0.2638,0.2638,0.2639,0.2639,0.2709,0.2711,0,0,0,0,0,0,0.2585,0.2575,0.2613,0.2614,0.2603,0.2611,0.2612,0.2617,0.2617,0.2619,0.2621,0.2621,0.2628,0.2629,0.2631,0.2722,0.2638,0.2639,0.2639,0.2708,0.271,0.2711,0,0,0,0,0,0,0.2584,0.2588,0.2612,0.26,0.2603,0.2612,0.2617,0.2617,0.2633,0.2626,0.2627,0.264,0.2628,0.263,0.2649,0.2719,0.2639,0.264,0.2706,0.2708,0.2711,0.2846,0,0,0,0,0,0,0.2582,0.2587,0.2591,0.26,0.2604,0.2633,0.2618,0.2618,0.264,0.264,0.2642,0.2643,0.2628,0.2648,0.2649,0.2719,0.264,0.2704,0.2707,0.271,0.284,0.2853,0.2864,0,0,0,0,0,0.258,0.2585,0.2591,0.2596,0.261,0.2635,0.2636,0.2639,0.2641,0.2652,0.265,0.2644,0.2668,0.2649,0.265,0.2722,0.2703,0.2706,0.271,0.2834,0.285,0.2864,0,0,0,0,0,0,0.2572,0.2586,0.2592,0.2604,0.2628,0.2636,0.2644,0.2655,0.2661,0.2663,0.2654,0.2654,0.2694,0.2681,0.2661,0.2747,0.2689,0.2692,0.2783,0.2798,0.281,0.2785,0.2641,0,0,0,0,0,0.2573,0.2575,0.26,0.2612,0.2625,0.264,0.2651,0.2662,0.2672,0.2675,0.268,0.2687,0.2706,0.2729,0.2723,0.2775,0.2766,0.2822,0.2834,0.2845,0.2824,0.2881,0.2897,0.2723,0.2723,0.2723,0,0,0.2572,0.2583,0.2583,0.2611,0.2624,0.2652,0.2646,0.2674,0.2704,0.2677,0.2711,0.2718,0.272,0.277,0.2791,0.2777,0.2895,0.2849,0.2859,0.2831,0.2886,0.2903,0.2918,0.2725,0.2725,0.2724,0,0,0.2575,0.2586,0.259,0.2613,0.2648,0.2667,0.2686,0.2712,0.2729,0.2766,0.276,0.2797,0.2826,0.2846,0.2861,0.2934,0.294,0.2959,0.3028,0.3087,0.3102,0.3114,0.3151,0.3166,0.2988,0.2989,0.2989,0,0.2569,0.2592,0.2599,0.262,0.2647,0.2682,0.2713,0.2737,0.2769,0.28,0.279,0.2852,0.2857,0.2934,0.2965,0.2964,0.2993,0.2982,0.3105,0.3117,0.3128,0.3162,0.3177,0.2996,0.2995,0.2994,0.2993,0,0.2586,0.2607,0.2618,0.2655,0.2683,0.2721,0.2763,0.2805,0.2842,0.2873,0.2944,0.2949,0.2995,0.3026,0.3021,0.3123,0.3118,0.3102,0.3074,0.3155,0.3185,0.3198,0.3005,0.3003,0.3001,0.2999,0,0,0.2563,0.2617,0.2623,0.2649,0.2711,0.2737,0.2803,0.2878,0.2933,0.2979,0.3055,0.3099,0.312,0.3134,0.3155,0.3212,0.333,0.321,0.321,0.3255,0.3467,0.3379,0.3384,0.3364,0.3366,0.3368,0.3467,0,0.258,0.2625,0.2652,0.2711,0.2742,0.2799,0.2854,0.2924,0.2989,0.307,0.312,0.3183,0.3163,0.3211,0.3268,0.3303,0.3367,0.3303,0.3371,0.3371,0.3292,0.3396,0.3115,0.3173,0.348,0.3482,0.3483,0,0.2589,0.2624,0.2674,0.2747,0.2766,0.281,0.2921,0.2976,0.3095,0.3148,0.3235,0.3271,0.3366,0.3332,0.3439,0.3414,0.3447,0.3465,0.347,0.3336,0.3306,0.3134,0.3184,0.3505,0.3503,0.3501,0.35,0,0.2576,0.2641,0.2685,0.2708,0.2791,0.2837,0.2902,0.3007,0.3071,0.3211,0.3279,0.3378,0.3446,0.3499,0.3542,0.3518,0.3648,0.3617,0.3561,0.3555,0.3293,0.3259,0.3689,0.3689,0.3688,0.3688,0.3688,0,0.2586,0.2614,0.2682,0.2709,0.2772,0.2832,0.292,0.3004,0.3129,0.3208,0.3318,0.3389,0.3497,0.3581,0.3597,0.3623,0.3699,0.3576,0.3581,0.3333,0.3303,0.3554,0.3537,0.3692,0.3691,0.369,0.369,0,0.2543,0.2594,0.2641,0.2734,0.2762,0.2808,0.2929,0.2986,0.3117,0.323,0.3284,0.3444,0.3537,0.3619,0.3718,0.3686,0.3717,0.3707,0.34,0.3366,0.3569,0.3558,0.3649,0.3647,0.3645,0.3643,0.3642,0,0.2527,0.2542,0.2636,0.2662,0.2703,0.2779,0.2823,0.2968,0.3028,0.3232,0.3273,0.3436,0.349,0.3609,0.36,0.3625,0.3702,0.3381,0.3258,0.3572,0.3569,0.356,0.3552,0.2979,0.2972,0.2967,0.2963,0,0.2481,0.2508,0.2547,0.2601,0.2652,0.2702,0.2786,0.2833,0.2989,0.3073,0.3178,0.3248,0.3381,0.328,0.3348,0.3317,0.3349,0.327,0.3707,0.3028,0.2947,0.2942,0.2954,0.2915,0.2919,0.2923,0.2926,0.2927,0.2432,0.2439,0.2484,0.252,0.2575,0.2596,0.2589,0.2665,0.2723,0.2809,0.2973,0.2984,0.3054,0.2988,0.291,0.2871,0.3095,0.2958,0.2972,0.2992,0.2892,0.2812,0.2735,0.2738,0.2742,0.2744,0.2747,0,0.2353,0.2365,0.2396,0.2427,0.2416,0.2491,0.2524,0.2476,0.2455,0.2576,0.263,0.2462,0.2414,0.2488,0.2349,0.2359,0.2309,0.2264,0.2172,0.2224,0.2269,0.2127,0.177,0.1767,0.1763,0.176,0,0,0.2317,0.2294,0.2301,0.2245,0.2263,0.2202,0.2184,0.2133,0.2161,0.2117,0.2117,0.2318,0.2419,0.2061,0.2022,0.1868,0.2021,0.1791,0.2583,0.2527,0.2567,0.2688,0.2532,0,0,0,0,0]},{"header":{"parameterUnit":"m.s-1","parameterCategory":2,"la1":30.2991,"la2":30.254,"lo1":-89.0895,"lo2":-89.0444,"dy":0.0017,"dx":0.0017,"nx":28,"ny":28,"refTime":"2023-09-09T03:00:00:Z","depth":"2","parameterNumber":3,"parameterNumberName":"V-component_of_CURRENTS"},"data":[0,0,0,0,0,0,0,0,0,0,0,0,0,0,0,0,0,0,0,0,0,0,0,0,0,0,0,0,0,0,0,0,0,0,0,0,0,0,0,0,0,0,0,0,0,0,0,0,0,0,0,0,0,0,0,0,0,0,0.0199,0.0198,0,0.0149,0.0148,0.0147,0.0115,0.0115,0.0115,0.0115,0.005,0.0049,0.0047,0,0,0,0,0,0,0,0,0,0,0,0,0,0.0223,0.0223,0.0199,0.0198,0.0198,0.0149,0.0148,0.0147,0.0115,0.0115,0.0115,0.0115,0.0051,0.0049,0.0047,0,0,0,0,0,0,0,0,0,0,0,0,0,0.0196,0.0223,0.0199,0.0177,0.0174,0.0149,0.0148,0.0147,0.0115,0.0115,0.0115,0.0115,0.0051,0.0049,0.0047,0.0034,0,0,0.0039,0.0038,0,0,0,0,0,0,0,0,0.0197,0.0195,0.0181,0.0178,0.0176,0.0139,0.0133,0.0109,0.0115,0.0136,0.0115,0.0115,0.0079,0.0075,0.0064,0.0031,0.0028,0.0039,0.0037,0.0036,0.0036,0,0,0,0,0,0,0,0.0199,0.0196,0.0178,0.018,0.0177,0.0154,0.0151,0.0128,0.0108,0.0135,0.0132,0.0129,0.0078,0.0067,0.0062,0.0027,0.0039,0.0037,0.0035,0.0034,-0.0018,-0.0018,0,0,0,0,0,0,0.021,0.0199,0.0179,0.0176,0.0188,0.0154,0.015,0.015,0.0109,0.0103,0.0129,0.0127,0.0071,0.0065,0.006,0.0049,0.0036,0.0034,0.0033,-0.0018,-0.0018,-0.0018,0,0,0,0,0,0,0.0211,0.0209,0.0181,0.0187,0.0182,0.0155,0.0154,0.0149,0.0139,0.0105,0.0098,0.0125,0.007,0.0063,0.0047,0.0046,0.0033,0.0031,-0.0018,-0.0018,-0.0018,0.0024,0,0,0,0,0,0,0.0212,0.021,0.0214,0.0188,0.0182,0.0173,0.0154,0.0148,0.0138,0.0135,0.0099,0.0093,0.007,0.0051,0.0045,0.0043,0.0029,-0.0018,-0.0018,-0.0018,0.0022,0.0025,0.0028,0,0,0,0,0,0.0213,0.0222,0.0214,0.0212,0.0188,0.0174,0.0169,0.0147,0.0138,0.0137,0.0115,0.0094,0.0047,0.005,0.0042,0.0039,-0.0018,-0.0018,-0.0018,0.0021,0.0025,0.0028,0,0,0,0,0,0,0.0233,0.0219,0.021,0.0213,0.0198,0.0169,0.0167,0.0151,0.0132,0.0132,0.0097,0.009,0.0076,0.0052,0.0055,0.0024,0.001,0.0009,0.0042,0.0045,0.0048,0.0089,0.0027,0,0,0,0,0,0.024,0.0244,0.0223,0.0226,0.022,0.0194,0.0185,0.0173,0.0153,0.0144,0.0117,0.009,0.007,0.0055,0.0035,0.0017,0.0004,0.0009,0.0012,0.0015,0.0043,0.0017,0.0021,-0.0017,-0.0017,-0.0017,0,0,0.0247,0.0241,0.0242,0.0231,0.0216,0.022,0.0188,0.0182,0.0189,0.014,0.0137,0.0103,0.0069,0.0053,0.0044,0.0033,0.0015,0.0015,0.0017,0.0045,0.0018,0.0022,0.0025,-0.0017,-0.0017,-0.0017,0,0,0.027,0.026,0.0273,0.0266,0.0254,0.024,0.0241,0.0215,0.0208,0.0197,0.0166,0.014,0.01,0.008,0.0064,0.0072,0.0035,0.005,0.0091,0.0065,0.0069,0.0071,0.0046,0.0047,0.0045,0.0045,0.0045,0,0.0281,0.0296,0.0273,0.0285,0.029,0.0254,0.0273,0.0259,0.0232,0.0233,0.0206,0.0157,0.0121,0.0111,0.0108,0.008,0.0057,0.008,0.007,0.0073,0.0075,0.0049,0.0049,0.0047,0.0047,0.0047,0.0047,0,0.0313,0.0327,0.0334,0.0343,0.0342,0.0352,0.0335,0.0333,0.0313,0.0295,0.0279,0.0226,0.02,0.017,0.014,0.0133,0.0107,0.0081,0.0066,0.0082,0.0052,0.0052,0.005,0.0049,0.0049,0.0048,0,0,0.0338,0.0355,0.036,0.0384,0.0378,0.0387,0.04,0.0405,0.0426,0.0376,0.0392,0.0333,0.0295,0.0276,0.0222,0.0193,0.017,0.0143,0.0141,0.0127,0.011,0.0085,0.0081,0.0133,0.0133,0.0133,0.0078,0,0.0375,0.042,0.0416,0.0464,0.0489,0.0474,0.0497,0.0496,0.0479,0.0481,0.0421,0.041,0.0336,0.032,0.0278,0.0206,0.0172,0.0188,0.0091,0.0089,0.0071,0.0081,0.0102,0.0055,0.0078,0.0077,0.0077,0,0.0413,0.0443,0.0499,0.0547,0.0557,0.058,0.0621,0.0635,0.0624,0.061,0.0576,0.0523,0.0476,0.0409,0.0302,0.031,0.0223,0.0159,0.0154,0.0125,0.0063,0.0044,0.0052,0.0076,0.0076,0.0076,0.0076,0,0.0459,0.0505,0.056,0.0573,0.0614,0.0647,0.0667,0.0676,0.0708,0.0693,0.0708,0.0628,0.0605,0.0487,0.0342,0.032,0.0224,0.0173,0.0071,0.0067,0.0068,0.0065,0.0108,0.0108,0.0108,0.0108,0.0108,0,0.0508,0.0552,0.059,0.0624,0.0702,0.0706,0.0784,0.0791,0.0814,0.0868,0.0779,0.0798,0.0623,0.0537,0.0386,0.0234,0.0253,0.0096,0.0058,0.008,0.0079,0.0086,0.0085,0.0106,0.0106,0.0107,0.0107,0,0.0551,0.0573,0.0644,0.0703,0.0729,0.0786,0.0866,0.0919,0.093,0.0998,0.1,0.0931,0.0821,0.0638,0.0456,0.031,0.0155,0.0093,0.0131,0.0099,0.0002,0.0003,-0.0023,-0.0024,-0.0025,-0.0026,-0.0027,0,0.0578,0.062,0.0706,0.0758,0.0791,0.0873,0.0938,0.0975,0.1038,0.1087,0.1129,0.1047,0.0997,0.0716,0.0454,0.0199,0.0158,0.0044,0.0007,0.0027,-0.0008,-0.0006,-0.0003,0.0015,0.0014,0.0014,0.0014,0,0.0635,0.0665,0.0724,0.0829,0.0909,0.1003,0.1096,0.1166,0.1227,0.1281,0.1333,0.1296,0.1041,0.0785,0.0435,0.0255,0.0083,0.003,0.0051,0.0045,0.0058,0.0025,0.0027,0.0012,0.0012,0.0012,0.0012,0.0012,0.0679,0.0726,0.0805,0.0906,0.1,0.1121,0.1206,0.1306,0.1417,0.1501,0.1472,0.1416,0.1142,0.0685,0.0388,0.0069,0.0079,-0.0045,-0.0042,-0.004,-0.0025,-0.0015,-0.0072,-0.0072,-0.0072,-0.0072,-0.0072,0,0.0729,0.0781,0.0876,0.0996,0.1101,0.1146,0.1303,0.1385,0.1518,0.1582,0.1607,0.1337,0.1052,0.0725,0.0262,-0.0013,-0.0036,-0.0112,-0.0074,-0.007,-0.0066,-0.0052,-0.0107,-0.0107,-0.0108,-0.0109,0,0,0.0756,0.0844,0.0888,0.1058,0.1146,0.1289,0.1382,0.1498,0.1574,0.1626,0.1591,0.1526,0.1143,0.0805,0.0435,0.0165,0.0106,0.0103,0.016,0.0253,0.026,0.0001,0.0032,0,0,0,0,0]}],[{"header":{"parameterUnit":"m.s-1","parameterCategory":2,"la1":30.2991,"la2":30.254,"lo1":-89.0895,"lo2":-89.0444,"dy":0.0017,"dx":0.0017,"nx":28,"ny":28,"refTime":"2023-09-09T03:00:00:Z","depth":"4","parameterNumber":2,"parameterNumberName":"U-component_of_CURRENTS"},"data":[0,0,0,0,0,0,0,0,0,0,0,0,0,0,0,0,0,0,0,0,0,0,0,0,0,0,0,0,0,0,0,0,0,0,0,0,0,0,0,0,0,0,0,0,0,0,0,0,0,0,0,0,0,0,0,0,0,0,0.1546,0.1546,0,0.1597,0.1597,0.1598,0.1638,0.1639,0.1639,0.164,0.169,0.1691,0.1692,0,0,0,0,0,0,0,0,0,0,0,0,0,0.1495,0.1495,0.1546,0.1546,0.1547,0.1597,0.1597,0.1598,0.1638,0.1639,0.164,0.164,0.169,0.1691,0.1692,0,0,0,0,0,0,0,0,0,0,0,0,0,0.1528,0.1496,0.1545,0.1574,0.1577,0.1597,0.1597,0.1598,0.1638,0.1639,0.164,0.164,0.1689,0.169,0.1692,0.1685,0,0,0.1696,0.1696,0,0,0,0,0,0,0,0,0.1526,0.1529,0.1569,0.1572,0.1575,0.1613,0.1598,0.1627,0.1638,0.1614,0.164,0.1641,0.1664,0.1667,0.1674,0.1687,0.169,0.1696,0.1697,0.1697,0.1698,0,0,0,0,0,0,0,0.1523,0.1527,0.1565,0.157,0.1574,0.1588,0.1593,0.1604,0.1633,0.1616,0.1619,0.1626,0.1666,0.1673,0.1676,0.169,0.1696,0.1697,0.1698,0.1698,0.1754,0.1755,0,0,0,0,0,0,0.1517,0.1525,0.1563,0.1567,0.1553,0.1589,0.1594,0.1599,0.1634,0.164,0.1626,0.1628,0.167,0.1674,0.1677,0.1735,0.1697,0.1698,0.1699,0.1754,0.1754,0.1755,0,0,0,0,0,0,0.1516,0.152,0.1561,0.1548,0.1554,0.1589,0.1594,0.16,0.1642,0.1641,0.1647,0.1665,0.1671,0.1676,0.1708,0.1734,0.1699,0.17,0.1753,0.1754,0.1755,0.1808,0,0,0,0,0,0,0.1514,0.1519,0.1542,0.1547,0.1555,0.1587,0.1593,0.16,0.1643,0.1648,0.1676,0.168,0.1672,0.1706,0.1709,0.1736,0.1701,0.1752,0.1753,0.1754,0.1805,0.1811,0.1815,0,0,0,0,0,0.1512,0.1531,0.1543,0.1549,0.1578,0.1588,0.1593,0.1619,0.1645,0.1661,0.1682,0.1681,0.1716,0.1707,0.1711,0.1739,0.1751,0.1753,0.1754,0.1803,0.181,0.1815,0,0,0,0,0,0,0.1518,0.1537,0.155,0.1574,0.1588,0.1595,0.1622,0.1641,0.1672,0.1689,0.1692,0.1696,0.1734,0.1727,0.1718,0.1757,0.1733,0.1735,0.1768,0.1775,0.178,0.1796,0.1702,0,0,0,0,0,0.153,0.1554,0.1563,0.1587,0.1597,0.1619,0.1637,0.1652,0.1671,0.1688,0.1705,0.1723,0.1737,0.175,0.1757,0.1783,0.1794,0.1801,0.1806,0.181,0.1825,0.1873,0.1885,0.176,0.176,0.176,0,0,0.1539,0.1555,0.157,0.1592,0.161,0.1619,0.1633,0.1664,0.168,0.1687,0.1728,0.1746,0.1748,0.1773,0.1789,0.1776,0.1848,0.1812,0.1816,0.1828,0.1876,0.1889,0.19,0.1761,0.1761,0.1761,0,0,0.1552,0.1584,0.1602,0.1616,0.1646,0.165,0.1667,0.169,0.1714,0.1749,0.1757,0.1794,0.1816,0.182,0.1825,0.1863,0.1874,0.1869,0.191,0.1957,0.1968,0.1978,0.1997,0.2008,0.187,0.187,0.187,0,0.157,0.1586,0.1609,0.1625,0.1641,0.1665,0.1679,0.1698,0.1731,0.1763,0.1769,0.1838,0.1836,0.1876,0.1885,0.1877,0.1902,0.1888,0.1966,0.1976,0.1986,0.2002,0.2014,0.1873,0.1872,0.1872,0.1872,0,0.1579,0.1605,0.1618,0.1642,0.1661,0.168,0.1698,0.1734,0.1774,0.18,0.1871,0.1882,0.193,0.1929,0.192,0.1985,0.1979,0.197,0.1955,0.2002,0.2015,0.2027,0.1877,0.1876,0.1875,0.1874,0,0,0.1577,0.1618,0.1625,0.1645,0.1676,0.1689,0.1724,0.1764,0.1815,0.1862,0.1928,0.196,0.2004,0.2012,0.2016,0.205,0.2122,0.2046,0.2048,0.2072,0.2225,0.2102,0.2102,0.2142,0.2145,0.2147,0.2203,0,0.158,0.1607,0.1628,0.166,0.1672,0.1713,0.1746,0.1795,0.1846,0.1912,0.1962,0.2023,0.2023,0.2064,0.2103,0.2122,0.2159,0.2107,0.217,0.2171,0.2063,0.2113,0.2155,0.2212,0.2214,0.2216,0.2218,0,0.1571,0.1593,0.1621,0.1678,0.1692,0.1724,0.1802,0.1837,0.1928,0.1979,0.2066,0.2103,0.2175,0.216,0.2249,0.2227,0.2239,0.2244,0.2246,0.2124,0.2069,0.2157,0.2238,0.2237,0.2235,0.2234,0.2232,0,0.1535,0.1588,0.1614,0.163,0.1692,0.1741,0.1792,0.1877,0.1927,0.2038,0.2099,0.2188,0.2251,0.2296,0.2328,0.2304,0.2412,0.237,0.2268,0.2259,0.233,0.2319,0.2434,0.2434,0.2434,0.2434,0.2434,0,0.1502,0.1531,0.1616,0.1625,0.1689,0.1748,0.183,0.1896,0.1999,0.2061,0.2149,0.2208,0.2298,0.2363,0.2368,0.2364,0.2456,0.2289,0.2274,0.2346,0.2337,0.2337,0.2325,0.2436,0.2435,0.2435,0.2435,0,0.1445,0.1492,0.1536,0.1629,0.1668,0.1723,0.1847,0.1896,0.2016,0.2099,0.2141,0.226,0.234,0.2406,0.2472,0.2407,0.241,0.2385,0.2466,0.2453,0.2206,0.2197,0.2254,0.2251,0.2248,0.2245,0.2243,0,0.1407,0.1425,0.1533,0.1565,0.1616,0.171,0.1761,0.1891,0.194,0.2106,0.213,0.2261,0.2321,0.2323,0.2398,0.2411,0.2383,0.2358,0.2266,0.2213,0.2194,0.2188,0.2183,0.2238,0.2237,0.2236,0.2235,0,0.1343,0.1402,0.1437,0.1507,0.1573,0.1628,0.1723,0.1751,0.1888,0.2018,0.2069,0.2107,0.2195,0.2237,0.2283,0.228,0.2354,0.2324,0.2329,0.2242,0.2193,0.2176,0.2174,0.2225,0.2226,0.2227,0.2228,0,0.1309,0.1324,0.1381,0.1434,0.1503,0.1519,0.1582,0.1641,0.171,0.1893,0.1909,0.2046,0.2173,0.2172,0.2209,0.221,0.2156,0.2059,0.2076,0.2089,0.2009,0.1921,0.1869,0,0,0,0,0,0.1266,0.1265,0.13,0.1337,0.1396,0.1436,0.1534,0.1596,0.1738,0.1727,0.1814,0.1882,0.1936,0.201,0.1976,0.213,0.2164,0.2079,0.206,0.2165,0.2177,0.21,0,0,0,0,0,0,0.1229,0.1261,0.1263,0.1241,0.1249,0.1295,0.135,0.1443,0.1448,0.1605,0.165,0.1769,0.1857,0.1945,0.1942,0.1964,0.1911,0.2173,0.2168,0.2158,0.2169,0.2179,0.2103,0,0,0,0,0]},{"header":{"parameterUnit":"m.s-1","parameterCategory":2,"la1":30.2991,"la2":30.254,"lo1":-89.0895,"lo2":-89.0444,"dy":0.0017,"dx":0.0017,"nx":28,"ny":28,"refTime":"2023-09-09T03:00:00:Z","depth":"4","parameterNumber":3,"parameterNumberName":"V-component_of_CURRENTS"},"data":[0,0,0,0,0,0,0,0,0,0,0,0,0,0,0,0,0,0,0,0,0,0,0,0,0,0,0,0,0,0,0,0,0,0,0,0,0,0,0,0,0,0,0,0,0,0,0,0,0,0,0,0,0,0,0,0,0,0,0.0199,0.0199,0,0.0168,0.0167,0.0167,0.0153,0.0153,0.0153,0.0153,0.0127,0.0126,0.0126,0,0,0,0,0,0,0,0,0,0,0,0,0,0.021,0.021,0.0199,0.0199,0.0199,0.0168,0.0167,0.0167,0.0153,0.0153,0.0153,0.0153,0.0127,0.0126,0.0126,0,0,0,0,0,0,0,0,0,0,0,0,0,0.0194,0.021,0.0199,0.0188,0.0187,0.0168,0.0167,0.0167,0.0153,0.0153,0.0153,0.0153,0.0128,0.0127,0.0125,0.0115,0,0,0.0122,0.0121,0,0,0,0,0,0,0,0,0.0195,0.0193,0.019,0.0189,0.0188,0.0165,0.0161,0.015,0.0153,0.0165,0.0153,0.0153,0.0141,0.0138,0.0131,0.0114,0.0113,0.0122,0.0121,0.0121,0.012,0,0,0,0,0,0,0,0.0196,0.0194,0.0186,0.019,0.0188,0.0172,0.017,0.0159,0.0152,0.0164,0.0163,0.016,0.014,0.0132,0.013,0.0113,0.0122,0.0121,0.012,0.012,0.0118,0.0119,0,0,0,0,0,0,0.0203,0.0196,0.0187,0.0185,0.0192,0.0172,0.017,0.0172,0.0152,0.0149,0.016,0.016,0.0134,0.0132,0.013,0.0149,0.0121,0.0119,0.0119,0.0118,0.0119,0.0119,0,0,0,0,0,0,0.0203,0.0203,0.0188,0.019,0.0187,0.0172,0.0174,0.0171,0.0169,0.0149,0.0147,0.0163,0.0134,0.0131,0.0132,0.0147,0.0119,0.0118,0.0117,0.0118,0.0119,0.0168,0,0,0,0,0,0,0.0204,0.0203,0.0208,0.0191,0.0187,0.0187,0.0173,0.017,0.0167,0.0167,0.015,0.0147,0.0134,0.0134,0.0131,0.0145,0.0117,0.0116,0.0117,0.0119,0.0166,0.0171,0.0175,0,0,0,0,0,0.0204,0.0211,0.0209,0.0208,0.0195,0.0187,0.0185,0.0173,0.0167,0.0171,0.0163,0.0148,0.014,0.0134,0.013,0.0144,0.0115,0.0117,0.0118,0.0164,0.017,0.0175,0,0,0,0,0,0,0.0218,0.021,0.0207,0.0211,0.0205,0.0186,0.0186,0.0178,0.0173,0.0175,0.0155,0.0152,0.0159,0.0144,0.0138,0.0148,0.0126,0.0127,0.0162,0.0167,0.0172,0.0178,0.0116,0,0,0,0,0,0.0224,0.0229,0.0217,0.0222,0.0219,0.0204,0.02,0.0195,0.0187,0.0184,0.0171,0.0162,0.016,0.0159,0.0151,0.0155,0.0126,0.0162,0.0166,0.017,0.0173,0.0141,0.0143,0.0124,0.0124,0.0124,0,0,0.023,0.0227,0.0229,0.0225,0.0218,0.0226,0.0202,0.0203,0.0217,0.0183,0.0194,0.0177,0.0165,0.0172,0.0174,0.0163,0.0161,0.0172,0.0176,0.0176,0.0143,0.0144,0.0146,0.0125,0.0125,0.0125,0,0,0.0247,0.0243,0.0254,0.0254,0.0251,0.0244,0.0248,0.0234,0.0236,0.0243,0.0225,0.0217,0.0211,0.0203,0.0201,0.0225,0.0186,0.0224,0.0253,0.0222,0.0223,0.0223,0.0187,0.0184,0.0226,0.0227,0.0227,0,0.0256,0.0271,0.0256,0.0269,0.0278,0.0257,0.0277,0.0275,0.0265,0.027,0.0258,0.0243,0.0228,0.0237,0.0246,0.0236,0.0208,0.0233,0.0227,0.0227,0.0227,0.019,0.0186,0.0229,0.0229,0.0229,0.0228,0,0.0282,0.0299,0.0305,0.032,0.0325,0.0338,0.0337,0.0342,0.0338,0.0331,0.0335,0.0307,0.0299,0.0292,0.0278,0.0273,0.025,0.0236,0.0212,0.0231,0.0191,0.0186,0.0233,0.0232,0.0231,0.023,0,0,0.0297,0.0321,0.0326,0.035,0.0357,0.0369,0.0391,0.0405,0.0422,0.0404,0.0418,0.0401,0.0372,0.0367,0.0339,0.0308,0.0279,0.0274,0.0271,0.0237,0.0203,0.0178,0.017,0.026,0.0259,0.0259,0.0175,0,0.0327,0.0369,0.0372,0.0421,0.0444,0.0443,0.0468,0.0478,0.0474,0.0478,0.0447,0.0447,0.0407,0.0401,0.0366,0.0302,0.0268,0.0302,0.019,0.0187,0.0162,0.0164,0.0257,0.0171,0.0169,0.0169,0.0168,0,0.0356,0.0384,0.0435,0.0484,0.0494,0.0523,0.0559,0.0579,0.0576,0.0571,0.0552,0.0517,0.0481,0.0441,0.0339,0.0361,0.0289,0.0231,0.0226,0.0183,0.0153,0.0147,0.0158,0.0159,0.016,0.016,0.0161,0,0.0381,0.0432,0.0481,0.0497,0.0541,0.0573,0.0599,0.0609,0.0636,0.0627,0.0632,0.0574,0.0554,0.0456,0.0338,0.0336,0.0213,0.0197,0.0105,0.0102,0.0127,0.0127,0.0121,0.0122,0.0122,0.0122,0.0122,0,0.0413,0.0454,0.0503,0.0532,0.0601,0.0616,0.0679,0.0691,0.0709,0.0739,0.0684,0.068,0.0555,0.047,0.0353,0.0213,0.0224,0.0108,0.008,0.015,0.0154,0.0123,0.0124,0.0119,0.0119,0.012,0.0121,0,0.0432,0.0461,0.0525,0.0588,0.0617,0.0668,0.0744,0.0781,0.079,0.0825,0.0826,0.0761,0.0645,0.0506,0.0342,0.0242,0.0104,0.0051,0.0134,0.0112,0.0009,0.0014,-0.0059,-0.006,-0.0062,-0.0063,-0.0064,0,0.0444,0.0479,0.0569,0.0615,0.0651,0.0729,0.0783,0.0823,0.0862,0.087,0.0887,0.0795,0.0728,0.0485,0.0328,0.0102,0.0068,-0.0007,-0.0,0.0011,-0.001,-0.0003,0.0004,-0.0066,-0.0066,-0.0066,-0.0067,0,0.0466,0.0501,0.0554,0.0649,0.0722,0.0804,0.0883,0.0918,0.0957,0.0966,0.0931,0.0806,0.0674,0.0483,0.0306,0.0144,0.004,-0.0021,-0.0019,-0.0014,0.0001,-0.0016,-0.0008,-0.0071,-0.007,-0.007,-0.007,0,0.0485,0.0522,0.0593,0.0678,0.0767,0.085,0.0895,0.0942,0.0981,0.0988,0.097,0.0827,0.0749,0.0503,0.034,0.0177,0.0133,0.0076,0.0071,0.0074,0.0134,0.0173,0.0129,0,0,0,0,0,0.0499,0.0539,0.0614,0.0707,0.0796,0.0853,0.0947,0.0983,0.1023,0.1004,0.0991,0.0864,0.0621,0.052,0.0353,0.0303,0.0097,0.0099,0.0028,-0.0096,-0.0091,-0.0047,0,0,0,0,0,0,0.0505,0.0573,0.0608,0.0714,0.078,0.0883,0.0946,0.0978,0.0972,0.0981,0.086,0.0806,0.0576,0.0713,0.0343,0.0295,0.0222,-0.0007,-0.0012,-0.0099,-0.0094,-0.009,-0.0043,0,0,0,0,0]}]]